Change the Weather History Date:

Friday, May 16, 2014

  Actual Average Record
Temperature  
Mean Temperature 71 °F -  
Max Temperature 82 °F 70 °F 89 °F (2006)
Min Temperature 59 °F 43 °F 32 °F (1986)
Degree Days  
Heating Degree Days 0 9  
Month to date heating degree days 133 177  
Since 1 July heating degree days 5457 5975  
Cooling Degree Days 6 1  
Month to date cooling degree days 16 4  
Year to date cooling degree days 16 5  
Growing Degree Days 21 (Base 50)    
Moisture  
Dew Point 38 °F    
Average Humidity 33    
Maximum Humidity 48    
Minimum Humidity 18    
Precipitation  
Precipitation 0.00 in 0.04 in 0.79 in (2005)
Month to date precipitation 0.63 0.70  
Year to date precipitation 5.58 4.67  
Sea Level Pressure  
Sea Level Pressure 29.85 in    
Wind  
Wind Speed 11 mph (SW)    
Max Wind Speed 21 mph    
Max Gust Speed 24 mph    
Visibility 10 miles    
Events      
T = Trace of Precipitation, MM = Missing Value Source: NWS Daily Summary

Daily Weather History Graph

Daily Weather History Graph

Search for Another Location

Airport or City:

Trip Planner

Search our weather history database for the weather conditions in past years. The results will help you decide how hot, cold, wet, or windy it might be!

Date:

Astronomy

May. 16, 2014 Rise Set
Actual Time 6:15 AM MDT 8:54 PM MDT
Civil Twilight 5:42 AM MDT 9:26 PM MDT
Nautical Twilight 5:02 AM MDT 10:07 PM MDT
Astronomical Twilight 4:16 AM MDT 10:53 PM MDT
Moon 11:04 PM MDT (5/16) 8:00 AM MDT (5/16)
Length of Visible Light 15h 43m
Length of Day
14h 39m
Waning Gibbous, 95% of the Moon is Illuminated
May 16
Waning Gibbous
May 21
Last Quarter
May 28
New
Jun 5
First Quarter
Jun 12
Full

Hourly Weather History & Observations

Time (MDT) Temp. Dew Point Humidity Pressure Visibility Wind Dir Wind Speed Gust Speed Precip Events Conditions
12:53 AM 60.1 °F 37.0 °F 42% 29.93 in 10.0 mi South 12.7 mph - N/A   Clear
2:53 AM 61.0 °F 36.0 °F 39% 29.89 in 10.0 mi South 10.4 mph - N/A   Clear
3:53 AM 62.1 °F 36.0 °F 38% 29.87 in 10.0 mi South 11.5 mph - N/A   Clear
4:53 AM 62.1 °F 37.9 °F 41% 29.86 in 10.0 mi South 12.7 mph - N/A   Clear
5:53 AM 63.0 °F 37.0 °F 38% 29.86 in 10.0 mi South 12.7 mph - N/A   Clear
6:53 AM 64.9 °F 35.1 °F 33% 29.88 in 10.0 mi Variable 4.6 mph - N/A   Clear
7:53 AM 62.1 °F 39.9 °F 44% 29.91 in 10.0 mi SSE 3.5 mph - N/A   Scattered Clouds
8:53 AM 68.0 °F 39.9 °F 36% 29.91 in 10.0 mi South 8.1 mph - N/A   Clear
9:53 AM 73.9 °F 37.0 °F 26% 29.91 in 10.0 mi WSW 10.4 mph - N/A   Clear
10:53 AM 73.0 °F 37.9 °F 28% 29.90 in 10.0 mi WNW 6.9 mph - N/A   Clear
11:53 AM 75.9 °F 34.0 °F 22% 29.89 in 10.0 mi West 13.8 mph 19.6 mph N/A   Clear
12:53 PM 78.1 °F 37.0 °F 23% 29.88 in 10.0 mi WNW 10.4 mph - N/A   Clear
2:53 PM 81.0 °F 34.0 °F 18% 29.84 in 10.0 mi WNW 16.1 mph - N/A   Clear
3:53 PM 82.0 °F 36.0 °F 19% 29.81 in 10.0 mi West 15.0 mph - N/A   Clear
4:53 PM 80.1 °F 36.0 °F 20% 29.81 in 10.0 mi WNW 18.4 mph - N/A   Clear
5:53 PM 77.0 °F 39.0 °F 25% 29.80 in 10.0 mi WNW 13.8 mph - N/A   Clear
6:53 PM 75.9 °F 41.0 °F 29% 29.78 in 10.0 mi West 10.4 mph - N/A   Clear
7:53 PM 73.0 °F 42.1 °F 33% 29.79 in 10.0 mi West 5.8 mph - N/A   Clear
8:53 PM 66.0 °F 45.0 °F 47% 29.78 in 10.0 mi SSW 5.8 mph - N/A   Clear
9:53 PM 64.9 °F 43.0 °F 45% 29.78 in 10.0 mi South 9.2 mph - N/A   Clear
10:53 PM 62.1 °F 43.0 °F 50% 29.80 in 10.0 mi SSW 12.7 mph - N/A   Clear
11:53 PM 62.1 °F 41.0 °F 46% 29.80 in 10.0 mi SSW 11.5 mph - N/A   Clear